| time (UTC) | temp F | wind direction | speed MPH | gust MPH | rain 1hr in | rain 24hr in | rain mn in | humidity % | barometer mb |
| 20260502164056 | 74 | 206 | 3.0 | 7.0 | 0.00 | 0.00 | 0.00 | 38 | 1019.1 |
| 20260502163600 | 74 | 223 | 3.0 | 8.0 | 0.00 | 0.00 | 0.00 | 38 | 1019.2 |
| 20260502163109 | 74 | 247 | 3.0 | 10.0 | 0.00 | 0.00 | 0.00 | 38 | 1019.2 |
| 20260502162556 | 75 | 200 | 3.0 | 7.0 | 0.00 | 0.00 | 0.00 | 38 | 1019.2 |
| 20260502162055 | 75 | 190 | 3.0 | 7.0 | 0.00 | 0.00 | 0.00 | 38 | 1019.2 |
| 20260502161558 | 74 | 195 | 3.0 | 9.0 | 0.00 | 0.00 | 0.00 | 37 | 1019.2 |
| 20260502161054 | 74 | 225 | 5.0 | 9.0 | 0.00 | 0.00 | 0.00 | 36 | 1019.2 |
| 20260502160554 | 74 | 180 | 3.0 | 8.0 | 0.00 | 0.00 | 0.00 | 35 | 1019.2 |
| 20260502152052 | 76 | 198 | 4.0 | 8.0 | 0.00 | 0.00 | 0.00 | 34 | 1019.7 |
| 20260502151551 | 76 | 243 | 3.0 | 8.0 | 0.00 | 0.00 | 0.00 | 34 | 1019.6 |
| 20260502151049 | 75 | 239 | 3.0 | 7.0 | 0.00 | 0.00 | 0.00 | 34 | 1019.7 |
| 20260502150548 | 75 | 219 | 4.0 | 8.0 | 0.00 | 0.00 | 0.00 | 34 | 1019.8 |
| 20260502130533 | 75 | 198 | 2.0 | 8.0 | 0.00 | 0.00 | 0.00 | 34 | 1021.3 |
| 20260502123529 | 74 | 217 | 3.0 | 10.0 | 0.00 | 0.00 | 0.00 | 32 | 1021.6 |
| 20260502123029 | 74 | 209 | 4.0 | 10.0 | 0.00 | 0.00 | 0.00 | 33 | 1021.7 |
| 20260502122529 | 74 | 211 | 5.0 | 11.0 | 0.00 | 0.00 | 0.00 | 33 | 1021.8 |
| 20260502122029 | 75 | 232 | 3.0 | 9.0 | 0.00 | 0.00 | 0.00 | 33 | 1021.8 |
| 20260502121527 | 74 | 228 | 1.0 | 9.0 | 0.00 | 0.00 | 0.00 | 33 | 1021.9 |
| 20260502121027 | 74 | 237 | 5.0 | 9.0 | 0.00 | 0.00 | 0.00 | 35 | 1022.0 |
| 20260502120526 | 74 | 226 | 4.0 | 7.0 | 0.00 | 0.00 | 0.00 | 35 | 1022.0 |
| 20260502115526 | 74 | 238 | 4.0 | 12.0 | 0.00 | 0.00 | 0.00 | 34 | 1022.1 |
| 20260502115026 | 74 | 248 | 5.0 | 11.0 | 0.00 | 0.00 | 0.00 | 36 | 1022.2 |
| 20260502114524 | 74 | 257 | 5.0 | 11.0 | 0.00 | 0.00 | 0.00 | 34 | 1022.2 |
| 20260502114022 | 74 | 147 | 1.0 | 9.0 | 0.00 | 0.00 | 0.00 | 35 | 1022.3 |
| 20260502113526 | 73 | 244 | 4.0 | 9.0 | 0.00 | 0.00 | 0.00 | 35 | 1022.4 |
| 20260502113021 | 74 | 227 | 3.0 | 8.0 | 0.00 | 0.00 | 0.00 | 37 | 1022.5 |
| 20260502112519 | 73 | 227 | 3.0 | 8.0 | 0.00 | 0.00 | 0.00 | 35 | 1022.5 |
| 20260502112021 | 73 | 249 | 3.0 | 7.0 | 0.00 | 0.00 | 0.00 | 36 | 1022.6 |
| 20260502111519 | 73 | 237 | 2.0 | 8.0 | 0.00 | 0.00 | 0.00 | 37 | 1022.7 |
| 20260502111018 | 73 | 238 | 5.0 | 10.0 | 0.00 | 0.00 | 0.00 | 35 | 1022.8 |
| 20260502110517 | 73 | 190 | 4.0 | 11.0 | 0.00 | 0.00 | 0.00 | 39 | 1022.8 |
| 20260502110015 | 72 | 241 | 5.0 | 11.0 | 0.00 | 0.00 | 0.00 | 37 | 1022.9 |
| 20260502105515 | 72 | 217 | 2.0 | 8.0 | 0.00 | 0.00 | 0.00 | 35 | 1023.0 |
| 20260502105013 | 72 | 205 | 5.0 | 10.0 | 0.00 | 0.00 | 0.00 | 37 | 1023.1 |
| 20260502104514 | 72 | 221 | 5.0 | 9.0 | 0.00 | 0.00 | 0.00 | 36 | 1023.2 |
| 20260502104012 | 72 | 198 | 4.0 | 10.0 | 0.00 | 0.00 | 0.00 | 39 | 1023.1 |
| 20260502103513 | 71 | 211 | 4.0 | 10.0 | 0.00 | 0.00 | 0.00 | 38 | 1023.2 |
| 20260502103011 | 71 | 205 | 4.0 | 8.0 | 0.00 | 0.00 | 0.00 | 38 | 1023.3 |
| 20260502102510 | 71 | 196 | 3.0 | 8.0 | 0.00 | 0.00 | 0.00 | 36 | 1023.4 |
| 20260502102009 | 71 | 196 | 3.0 | 7.0 | 0.00 | 0.00 | 0.00 | 40 | 1023.4 |
| 20260502101508 | 71 | 248 | 2.0 | 7.0 | 0.00 | 0.00 | 0.00 | 39 | 1023.5 |
| 20260502101007 | 70 | 261 | 2.0 | 9.0 | 0.00 | 0.00 | 0.00 | 37 | 1023.5 |
| 20260502100506 | 70 | 231 | 5.0 | 9.0 | 0.00 | 0.00 | 0.00 | 37 | 1023.6 |
| 20260502091055 | 69 | 240 | 1.0 | 7.0 | 0.00 | 0.00 | 0.00 | 39 | 1024.2 |
| 20260502090555 | 69 | 171 | 2.0 | 7.0 | 0.00 | 0.00 | 0.00 | 38 | 1024.2 |
| 20260502071530 | 65 | 61 | 0.0 | 2.0 | 0.00 | 0.00 | 0.00 | 46 | 1025.0 |
| 20260502071028 | 65 | 61 | 0.0 | 2.0 | 0.00 | 0.00 | 0.00 | 48 | 1025.0 |
| 20260502070526 | 64 | 61 | 0.0 | 2.0 | 0.00 | 0.00 | 0.00 | 51 | 1025.1 |
| 20260502070036 | 64 | 61 | 0.0 | 2.0 | 0.00 | 0.00 | 0.00 | 50 | 1025.0 |
| 20260502065524 | 63 | 61 | 0.0 | 2.0 | 0.00 | 0.00 | 0.00 | 54 | 1025.1 |
| 20260502065022 | 62 | 61 | 0.0 | 2.0 | 0.00 | 0.00 | 0.00 | 53 | 1025.1 |
| 20260502064534 | 61 | 61 | 0.0 | 2.0 | 0.00 | 0.00 | 0.00 | 56 | 1025.1 |
| 20260502064022 | 61 | 61 | 0.0 | 2.0 | 0.00 | 0.00 | 0.00 | 56 | 1025.1 |
| 20260502063518 | 60 | 57 | 1.0 | 2.0 | 0.00 | 0.00 | 0.00 | 56 | 1025.1 |
| 20260502063016 | 60 | 44 | 0.0 | 2.0 | 0.00 | 0.00 | 0.00 | 57 | 1025.1 |
| 20260502062515 | 60 | 44 | 0.0 | 2.0 | 0.00 | 0.00 | 0.00 | 56 | 1025.2 |
| 20260502062017 | 59 | 44 | 0.0 | 2.0 | 0.00 | 0.00 | 0.00 | 58 | 1025.2 |
| 20260502061513 | 58 | 44 | 0.0 | 2.0 | 0.00 | 0.00 | 0.00 | 59 | 1025.2 |
| 20260502061011 | 57 | 44 | 0.0 | 2.0 | 0.00 | 0.00 | 0.00 | 60 | 1025.2 |
| 20260502060509 | 57 | 44 | 0.0 | 2.0 | 0.00 | 0.00 | 0.00 | 62 | 1025.3 |
| 20260502060013 | 56 | 31 | 0.0 | 3.0 | 0.00 | 0.00 | 0.00 | 63 | 1025.3 |
| 20260502055506 | 55 | 32 | 1.0 | 4.0 | 0.00 | 0.00 | 0.00 | 62 | 1025.3 |
| 20260502055006 | 55 | 17 | 2.0 | 4.0 | 0.00 | 0.00 | 0.00 | 63 | 1025.3 |
| 20260502054503 | 54 | 19 | 1.0 | 2.0 | 0.00 | 0.00 | 0.00 | 65 | 1025.3 |
| 20260502054002 | 54 | 19 | 0.0 | 3.0 | 0.00 | 0.00 | 0.00 | 66 | 1025.4 |
| 20260502053502 | 54 | 19 | 1.0 | 3.0 | 0.00 | 0.00 | 0.00 | 67 | 1025.4 |
| 20260502053108 | 53 | 24 | 0.0 | 2.0 | 0.00 | 0.00 | 0.00 | 67 | 1025.4 |
| 20260502052602 | 53 | 24 | 0.0 | 2.0 | 0.00 | 0.00 | 0.00 | 68 | 1025.4 |
| 20260502052058 | 52 | 24 | 0.0 | 2.0 | 0.00 | 0.00 | 0.00 | 68 | 1025.4 |
| 20260502051558 | 52 | 24 | 0.0 | 2.0 | 0.00 | 0.00 | 0.00 | 71 | 1025.5 |
| 20260502051054 | 51 | 24 | 0.0 | 2.0 | 0.00 | 0.00 | 0.00 | 71 | 1025.5 |
| 20260502050555 | 50 | 24 | 0.0 | 2.0 | 0.00 | 0.00 | 0.00 | 71 | 1025.4 |
| 20260502050052 | 50 | 24 | 0.0 | 1.0 | 0.00 | 0.00 | 0.00 | 71 | 1025.4 |
| 20260502045554 | 49 | 24 | 0.0 | 1.0 | 0.00 | 0.00 | 0.00 | 73 | 1025.4 |
| 20260502045048 | 49 | 24 | 0.0 | 1.0 | 0.00 | 0.00 | 0.00 | 72 | 1025.3 |
| 20260502044553 | 48 | 24 | 0.0 | 1.0 | 0.00 | 0.00 | 0.00 | 72 | 1025.3 |
| 20260502044047 | 48 | 24 | 0.0 | 0.0 | 0.00 | 0.00 | 0.00 | 73 | 1025.3 |
| 20260502043546 | 48 | 24 | 0.0 | 0.0 | 0.00 | 0.00 | 0.00 | 73 | 1025.3 |
| 20260502043051 | 47 | 24 | 0.0 | 0.0 | 0.00 | 0.00 | 0.00 | 74 | 1025.3 |
| 20260502042545 | 47 | 24 | 0.0 | 0.0 | 0.00 | 0.00 | 0.00 | 73 | 1025.3 |
| 20260502042045 | 47 | 24 | 0.0 | 2.0 | 0.00 | 0.00 | 0.00 | 73 | 1025.3 |
| 20260502041549 | 47 | 24 | 0.0 | 2.0 | 0.00 | 0.00 | 0.00 | 73 | 1025.2 |
| 20260502041043 | 47 | 24 | 1.0 | 3.0 | 0.00 | 0.00 | 0.00 | 74 | 1025.2 |
| 20260502040645 | 46 | 24 | 2.0 | 3.0 | 0.00 | 0.00 | 0.00 | 74 | 1025.2 |
| 20260502040041 | 46 | 24 | 0.0 | 2.0 | 0.00 | 0.00 | 0.00 | 75 | 1025.1 |
| 20260502035544 | 46 | 24 | 0.0 | 2.0 | 0.00 | 0.00 | 0.00 | 75 | 1025.2 |
| 20260502035041 | 46 | 24 | 0.0 | 2.0 | 0.00 | 0.00 | 0.00 | 76 | 1025.2 |
| 20260502034541 | 45 | 24 | 0.0 | 2.0 | 0.00 | 0.00 | 0.00 | 76 | 1025.2 |
| 20260502034041 | 45 | 24 | 1.0 | 2.0 | 0.00 | 0.00 | 0.00 | 76 | 1025.3 |
| 20260502033541 | 45 | 24 | 0.0 | 2.0 | 0.00 | 0.00 | 0.00 | 76 | 1025.2 |
| 20260502033041 | 45 | 24 | 0.0 | 2.0 | 0.00 | 0.00 | 0.00 | 77 | 1025.3 |
| 20260502032539 | 44 | 24 | 0.0 | 2.0 | 0.00 | 0.00 | 0.00 | 77 | 1025.2 |
| 20260502032040 | 44 | 24 | 0.0 | 2.0 | 0.00 | 0.00 | 0.00 | 77 | 1025.2 |
| 20260502031540 | 44 | 24 | 0.0 | 2.0 | 0.00 | 0.00 | 0.00 | 78 | 1025.2 |
| 20260502031041 | 44 | 24 | 0.0 | 2.0 | 0.00 | 0.00 | 0.00 | 76 | 1025.2 |
| 20260502030537 | 45 | 24 | 0.0 | 2.0 | 0.00 | 0.00 | 0.00 | 75 | 1025.3 |
| 20260502030035 | 46 | 24 | 0.0 | 1.0 | 0.00 | 0.00 | 0.00 | 73 | 1025.3 |
| 20260502025533 | 47 | 24 | 0.0 | 0.0 | 0.00 | 0.00 | 0.00 | 73 | 1025.3 |
| 20260502025033 | 47 | 24 | 0.0 | 0.0 | 0.00 | 0.00 | 0.00 | 73 | 1025.4 |
| 20260502024539 | 47 | 24 | 0.0 | 0.0 | 0.00 | 0.00 | 0.00 | 72 | 1025.4 |
| 20260502024032 | 47 | 24 | 0.0 | 0.0 | 0.00 | 0.00 | 0.00 | 72 | 1025.4 |
| 20260502023532 | 47 | 24 | 0.0 | 2.0 | 0.00 | 0.00 | 0.00 | 71 | 1025.5 |
| 20260502023032 | 47 | 24 | 0.0 | 2.0 | 0.00 | 0.00 | 0.00 | 71 | 1025.5 |
| 20260502022532 | 47 | 24 | 0.0 | 0.0 | 0.00 | 0.00 | 0.00 | 71 | 1025.4 |
| 20260502022033 | 47 | 24 | 0.0 | 1.0 | 0.00 | 0.00 | 0.00 | 71 | 1025.4 |
| 20260502021531 | 47 | 24 | 0.0 | 2.0 | 0.00 | 0.00 | 0.00 | 72 | 1025.5 |
| 20260502021031 | 47 | 24 | 0.0 | 2.0 | 0.00 | 0.00 | 0.00 | 71 | 1025.5 |
| 20260502020531 | 48 | 24 | 0.0 | 2.0 | 0.00 | 0.00 | 0.00 | 71 | 1025.5 |
| 20260502020030 | 48 | 24 | 0.0 | 2.0 | 0.00 | 0.00 | 0.00 | 70 | 1025.5 |
| 20260502015530 | 48 | 24 | 0.0 | 2.0 | 0.00 | 0.00 | 0.00 | 70 | 1025.5 |
| 20260502015031 | 48 | 24 | 0.0 | 2.0 | 0.00 | 0.00 | 0.00 | 70 | 1025.5 |
| 20260502014547 | 48 | 24 | 0.0 | 0.0 | 0.00 | 0.00 | 0.00 | 71 | 1025.5 |
| 20260502014029 | 48 | 24 | 0.0 | 1.0 | 0.00 | 0.00 | 0.00 | 70 | 1025.5 |
| 20260502013529 | 48 | 24 | 0.0 | 2.0 | 0.00 | 0.00 | 0.00 | 70 | 1025.6 |
| 20260502013030 | 48 | 24 | 0.0 | 2.0 | 0.00 | 0.00 | 0.00 | 71 | 1025.6 |
| 20260502012529 | 48 | 24 | 1.0 | 2.0 | 0.00 | 0.00 | 0.00 | 71 | 1025.6 |
| 20260502012029 | 48 | 24 | 0.0 | 2.0 | 0.00 | 0.00 | 0.00 | 71 | 1025.6 |
| 20260502011533 | 48 | 24 | 0.0 | 1.0 | 0.00 | 0.00 | 0.00 | 70 | 1025.6 |
| 20260502011029 | 49 | 24 | 0.0 | 0.0 | 0.00 | 0.00 | 0.00 | 70 | 1025.6 |
| 20260502010529 | 49 | 24 | 0.0 | 0.0 | 0.00 | 0.00 | 0.00 | 69 | 1025.6 |
| 20260502010030 | 49 | 24 | 0.0 | 1.0 | 0.00 | 0.00 | 0.00 | 69 | 1025.6 |
| 20260502005528 | 50 | 24 | 0.0 | 1.0 | 0.00 | 0.00 | 0.00 | 69 | 1025.6 |
| 20260502005028 | 49 | 24 | 0.0 | 2.0 | 0.00 | 0.00 | 0.00 | 68 | 1025.5 |
| 20260502004528 | 49 | 24 | 0.0 | 2.0 | 0.00 | 0.00 | 0.00 | 69 | 1025.5 |
| 20260502004027 | 49 | 24 | 0.0 | 2.0 | 0.00 | 0.00 | 0.00 | 69 | 1025.5 |
| 20260502003527 | 50 | 24 | 0.0 | 2.0 | 0.00 | 0.00 | 0.00 | 69 | 1025.6 |
| 20260502003028 | 49 | 24 | 1.0 | 2.0 | 0.00 | 0.00 | 0.00 | 69 | 1025.6 |
| 20260502002527 | 49 | 20 | 1.0 | 3.0 | 0.00 | 0.00 | 0.00 | 69 | 1025.6 |
| 20260502002027 | 49 | 17 | 1.0 | 3.0 | 0.00 | 0.00 | 0.00 | 69 | 1025.7 |
| 20260502001527 | 48 | 17 | 1.0 | 2.0 | 0.00 | 0.00 | 0.00 | 69 | 1025.7 |
| 20260502001028 | 48 | 17 | 1.0 | 2.0 | 0.00 | 0.00 | 0.00 | 70 | 1025.7 |
| 20260502000526 | 47 | 17 | 1.0 | 2.0 | 0.00 | 0.00 | 0.00 | 71 | 1025.8 |
| 20260502000042 | 47 | 17 | 0.0 | 2.0 | 0.00 | 0.00 | 0.00 | 71 | 1025.8 |
| 20260501235526 | 47 | 17 | 0.0 | 2.0 | 0.00 | 0.00 | 0.00 | 71 | 1025.8 |
| 20260501235024 | 47 | 17 | 1.0 | 2.0 | 0.00 | 0.00 | 0.00 | 71 | 1025.8 |
| 20260501234524 | 48 | 11 | 0.0 | 2.0 | 0.00 | 0.00 | 0.00 | 71 | 1025.9 |
| 20260501234024 | 48 | 11 | 0.0 | 2.0 | 0.00 | 0.00 | 0.00 | 69 | 1025.9 |
| 20260501233524 | 49 | 10 | 0.0 | 2.0 | 0.00 | 0.00 | 0.00 | 69 | 1025.9 |
| 20260501233024 | 49 | 10 | 0.0 | 2.0 | 0.00 | 0.00 | 0.00 | 68 | 1025.8 |
| 20260501232523 | 49 | 10 | 0.0 | 2.0 | 0.00 | 0.00 | 0.00 | 67 | 1025.8 |
| 20260501232025 | 50 | 10 | 0.0 | 2.0 | 0.00 | 0.00 | 0.00 | 67 | 1025.8 |
| 20260501231525 | 50 | 10 | 0.0 | 2.0 | 0.00 | 0.00 | 0.00 | 66 | 1025.8 |
| 20260501231022 | 50 | 10 | 0.0 | 2.0 | 0.00 | 0.00 | 0.00 | 67 | 1025.7 |
| 20260501230525 | 50 | 10 | 0.0 | 2.0 | 0.00 | 0.00 | 0.00 | 67 | 1025.7 |
| 20260501230022 | 50 | 10 | 0.0 | 2.0 | 0.00 | 0.00 | 0.00 | 67 | 1025.7 |
| 20260501225520 | 50 | 10 | 0.0 | 2.0 | 0.00 | 0.00 | 0.00 | 67 | 1025.7 |
| 20260501225019 | 49 | 10 | 0.0 | 2.0 | 0.00 | 0.00 | 0.00 | 67 | 1025.7 |
| 20260501224519 | 49 | 10 | 0.0 | 0.0 | 0.00 | 0.00 | 0.00 | 68 | 1025.6 |
| 20260501224017 | 49 | 10 | 0.0 | 2.0 | 0.00 | 0.00 | 0.00 | 69 | 1025.7 |
| 20260501223516 | 48 | 10 | 0.0 | 2.0 | 0.00 | 0.00 | 0.00 | 70 | 1025.6 |
| 20260501223016 | 49 | 5 | 0.0 | 2.0 | 0.00 | 0.00 | 0.00 | 70 | 1025.6 |
| 20260501222514 | 48 | 5 | 0.0 | 2.0 | 0.00 | 0.00 | 0.00 | 70 | 1025.5 |
| 20260501222014 | 48 | 5 | 0.0 | 2.0 | 0.00 | 0.00 | 0.00 | 71 | 1025.4 |
| 20260501221520 | 48 | 5 | 0.0 | 2.0 | 0.00 | 0.00 | 0.00 | 71 | 1025.4 |
| 20260501221014 | 48 | 5 | 0.0 | 2.0 | 0.00 | 0.00 | 0.00 | 71 | 1025.4 |
| 20260501220512 | 48 | 238 | 0.0 | 1.0 | 0.00 | 0.00 | 0.00 | 70 | 1025.3 |
| 20260501220014 | 48 | 238 | 0.0 | 2.0 | 0.00 | 0.00 | 0.00 | 70 | 1025.3 |
| 20260501215510 | 48 | 238 | 0.0 | 2.0 | 0.00 | 0.00 | 0.00 | 66 | 1025.2 |
| 20260501215011 | 49 | 238 | 0.0 | 0.0 | 0.00 | 0.00 | 0.00 | 66 | 1025.2 |
| 20260501214513 | 50 | 238 | 0.0 | 0.0 | 0.00 | 0.00 | 0.00 | 66 | 1025.2 |
| 20260501214010 | 50 | 238 | 0.0 | 0.0 | 0.00 | 0.00 | 0.00 | 65 | 1025.2 |
| 20260501213514 | 50 | 238 | 0.0 | 1.0 | 0.00 | 0.00 | 0.00 | 64 | 1025.2 |
| 20260501213010 | 51 | 238 | 0.0 | 1.0 | 0.00 | 0.00 | 0.00 | 61 | 1025.1 |
| 20260501212510 | 51 | 238 | 0.0 | 0.0 | 0.00 | 0.00 | 0.00 | 61 | 1025.1 |
| 20260501212010 | 52 | 238 | 0.0 | 0.0 | 0.00 | 0.00 | 0.00 | 59 | 1025.1 |
| 20260501211510 | 52 | 238 | 0.0 | 0.0 | 0.00 | 0.00 | 0.00 | 59 | 1025.1 |
| 20260501211010 | 52 | 238 | 0.0 | 2.0 | 0.00 | 0.00 | 0.00 | 61 | 1025.0 |
| 20260501210509 | 51 | 238 | 0.0 | 2.0 | 0.00 | 0.00 | 0.00 | 61 | 1025.0 |
| 20260501210009 | 51 | 238 | 0.0 | 2.0 | 0.00 | 0.00 | 0.00 | 61 | 1025.0 |
| 20260501205513 | 51 | 238 | 0.0 | 2.0 | 0.00 | 0.00 | 0.00 | 61 | 1024.9 |
| 20260501205009 | 51 | 238 | 0.0 | 2.0 | 0.00 | 0.00 | 0.00 | 60 | 1024.9 |
| 20260501204509 | 52 | 238 | 0.0 | 2.0 | 0.00 | 0.00 | 0.00 | 60 | 1024.8 |
| 20260501204008 | 53 | 238 | 0.0 | 2.0 | 0.00 | 0.00 | 0.00 | 57 | 1024.8 |
| 20260501203508 | 54 | 238 | 0.0 | 2.0 | 0.00 | 0.00 | 0.00 | 51 | 1024.7 |
| 20260501203009 | 54 | 238 | 0.0 | 2.0 | 0.00 | 0.00 | 0.00 | 51 | 1024.7 |
| 20260501202508 | 55 | 238 | 0.0 | 0.0 | 0.00 | 0.00 | 0.00 | 45 | 1024.7 |
| 20260501202008 | 55 | 238 | 0.0 | 0.0 | 0.00 | 0.00 | 0.00 | 45 | 1024.7 |
| 20260501201509 | 56 | 238 | 0.0 | 0.0 | 0.00 | 0.00 | 0.00 | 45 | 1024.7 |
| 20260501201008 | 56 | 238 | 0.0 | 0.0 | 0.00 | 0.00 | 0.00 | 45 | 1024.7 |
| 20260501200507 | 57 | 238 | 0.0 | 0.0 | 0.00 | 0.00 | 0.00 | 45 | 1024.6 |
| 20260501200007 | 57 | 238 | 0.0 | 0.0 | 0.00 | 0.00 | 0.00 | 44 | 1024.6 |
| 20260501195507 | 57 | 238 | 0.0 | 0.0 | 0.00 | 0.00 | 0.00 | 45 | 1024.6 |
| 20260501195007 | 58 | 238 | 0.0 | 0.0 | 0.00 | 0.00 | 0.00 | 42 | 1024.6 |
| 20260501194511 | 58 | 238 | 0.0 | 0.0 | 0.00 | 0.00 | 0.00 | 42 | 1024.5 |
| 20260501194006 | 59 | 238 | 0.0 | 0.0 | 0.00 | 0.00 | 0.00 | 42 | 1024.4 |
| 20260501193507 | 59 | 238 | 0.0 | 0.0 | 0.00 | 0.00 | 0.00 | 42 | 1024.3 |
| 20260501193011 | 60 | 238 | 0.0 | 1.0 | 0.00 | 0.00 | 0.00 | 40 | 1024.3 |
| 20260501192506 | 60 | 238 | 0.0 | 1.0 | 0.00 | 0.00 | 0.00 | 40 | 1024.2 |
| 20260501192006 | 60 | 238 | 0.0 | 1.0 | 0.00 | 0.00 | 0.00 | 40 | 1024.2 |
| 20260501191506 | 60 | 238 | 0.0 | 1.0 | 0.00 | 0.00 | 0.00 | 41 | 1024.1 |
| 20260501191007 | 61 | 238 | 0.0 | 1.0 | 0.00 | 0.00 | 0.00 | 41 | 1024.1 |
| 20260501190507 | 61 | 238 | 0.0 | 2.0 | 0.00 | 0.00 | 0.00 | 40 | 1024.0 |
| 20260501190138 | 61 | 238 | 0.0 | 2.0 | 0.00 | 0.00 | 0.00 | 40 | 1024.0 |
| 20260501185505 | 61 | 238 | 0.0 | 1.0 | 0.00 | 0.00 | 0.00 | 40 | 1024.0 |
| 20260501185005 | 61 | 238 | 0.0 | 0.0 | 0.00 | 0.00 | 0.00 | 39 | 1023.9 |
| 20260501184505 | 62 | 238 | 0.0 | 0.0 | 0.00 | 0.00 | 0.00 | 39 | 1023.8 |
| 20260501184005 | 62 | 238 | 0.0 | 1.0 | 0.00 | 0.00 | 0.00 | 37 | 1023.7 |
| 20260501183506 | 62 | 238 | 0.0 | 2.0 | 0.00 | 0.00 | 0.00 | 38 | 1023.7 |
| 20260501183008 | 63 | 238 | 0.0 | 2.0 | 0.00 | 0.00 | 0.00 | 38 | 1023.7 |
| 20260501182506 | 63 | 238 | 0.0 | 2.0 | 0.00 | 0.00 | 0.00 | 38 | 1023.6 |
| 20260501182004 | 63 | 238 | 0.0 | 3.0 | 0.00 | 0.00 | 0.00 | 37 | 1023.6 |
| 20260501181512 | 64 | 242 | 0.0 | 3.0 | 0.00 | 0.00 | 0.00 | 36 | 1023.5 |
| 20260501181004 | 64 | 230 | 0.0 | 2.0 | 0.00 | 0.00 | 0.00 | 36 | 1023.5 |
| 20260501180504 | 64 | 229 | 0.0 | 3.0 | 0.00 | 0.00 | 0.00 | 36 | 1023.4 |
| 20260501180004 | 65 | 227 | 1.0 | 3.0 | 0.00 | 0.00 | 0.00 | 35 | 1023.4 |
| 20260501175504 | 65 | 182 | 0.0 | 2.0 | 0.00 | 0.00 | 0.00 | 36 | 1023.4 |
| 20260501175003 | 65 | 211 | 0.0 | 5.0 | 0.00 | 0.00 | 0.00 | 34 | 1023.3 |
| 20260501174503 | 66 | 211 | 2.0 | 5.0 | 0.00 | 0.00 | 0.00 | 34 | 1023.2 |
| 20260501174003 | 66 | 219 | 2.0 | 6.0 | 0.00 | 0.00 | 0.00 | 33 | 1023.3 |
| 20260501173503 | 67 | 239 | 2.0 | 6.0 | 0.00 | 0.00 | 0.00 | 32 | 1023.2 |
| 20260501173003 | 67 | 244 | 2.0 | 7.0 | 0.00 | 0.00 | 0.00 | 32 | 1023.2 |
| 20260501172503 | 67 | 238 | 2.0 | 7.0 | 0.00 | 0.00 | 0.00 | 32 | 1023.1 |
| 20260501172003 | 67 | 233 | 3.0 | 6.0 | 0.00 | 0.00 | 0.00 | 32 | 1023.1 |
| 20260501171504 | 68 | 236 | 2.0 | 6.0 | 0.00 | 0.00 | 0.00 | 31 | 1023.1 |